Simultaneous Nadir Overpasses (SNOs) Predictions

Prediction of SNOs between NPP and TERRA Satellite Orbit:

Table of predicted SNOs for the next 14.0 days since TLE Epoch: 12/12/2015
Index Date (NPP) Time (NPP) Lat,Lon (NPP) SZA (NPP ) Date (TERRA) Time (TERRA) Lat,Lon (TERRA) SZA (TERRA ) Distance(km) Time Diff (sec)
1 12/13/2015 01:17:11 68.65, 159.58 91.65 12/13/2015 01:18:11 68.67, 159.64 91.67 2.91 60
2 12/13/2015 02:07:52 -68.51, -32.91 88.50 12/13/2015 02:07:42 -68.51, -32.93 88.50 1.02 10
3 12/13/2015 02:58:27 67.91, 135.16 90.91 12/13/2015 02:57:17 67.94, 134.04 90.94 47.01 70
4 12/15/2015 17:34:03 68.62, -84.60 91.77 12/15/2015 17:34:37 68.62, -84.54 91.78 2.57 34
5 12/15/2015 18:24:44 -68.47, 82.91 88.38 12/15/2015 18:24:08 -68.46, 82.90 88.39 0.75 36
6 12/18/2015 09:00:20 -69.12,-136.82 87.62 12/18/2015 09:01:31 -69.01,-135.80 87.73 42.23 71
7 12/18/2015 09:50:55 68.53, 31.29 91.79 12/18/2015 09:51:04 68.55, 31.27 91.82 2.81 9
8 12/18/2015 10:41:37 -68.43,-161.27 88.31 12/18/2015 10:40:34 -68.45,-161.21 88.29 3.38 63
9 12/21/2015 01:17:04 -68.61, -20.36 88.08 12/21/2015 01:18:04 -68.60, -20.42 88.09 2.85 60
10 12/21/2015 02:07:48 68.50, 147.10 91.81 12/21/2015 02:07:31 68.47, 147.07 91.79 3.09 17
11 12/21/2015 02:58:20 -67.86, -44.78 88.83 12/21/2015 02:57:09 -67.93, -45.94 88.76 49.15 71
12 12/23/2015 17:33:57 -68.58, 95.45 88.11 12/23/2015 17:34:30 -68.56, 95.43 88.13 2.35 33
13 12/23/2015 18:24:40 68.42, -97.03
